Change the Weather History Date:

Friday, March 28, 2014

  Actual Average Record
Temperature  
Mean Temperature 72 °F -  
Max Temperature 77 °F 75 °F 83 °F (2009)
Min Temperature 66 °F 62 °F 48 °F (2013)
Cooling Degree Days 6    
Growing Degree Days 22 (Base 50)    
Moisture  
Dew Point 66 °F    
Average Humidity 83    
Maximum Humidity 94    
Minimum Humidity 69    
Precipitation  
Precipitation 0.00 in - - ()
Sea Level Pressure  
Sea Level Pressure 30.15 in    
Wind  
Wind Speed 12 mph (SSE)    
Max Wind Speed 17 mph    
Max Gust Speed -    
Visibility 10 miles    
Events      
Averages and records for this station are not official NWS values.
T = Trace of Precipitation, MM = Missing Value Source: NWS Daily Summary

Daily Weather History Graph

Daily Weather History Graph

Search for Another Location

Airport or City:

Trip Planner

Search our weather history database for the weather conditions in past years. The results will help you decide how hot, cold, wet, or windy it might be!

Date:

Astronomy

Mar. 28, 2014 Rise Set
Actual Time 7:17 AM EDT 7:38 PM EDT
Civil Twilight 6:53 AM EDT 8:01 PM EDT
Nautical Twilight 6:26 AM EDT 8:29 PM EDT
Astronomical Twilight 5:58 AM EDT 8:57 PM EDT
Moon 5:35 AM EDT 5:41 PM EDT
Length of Visible Light 13h 08m
Length of Day
12h 21m
Waning Crescent, 6% of the Moon is Illuminated
Mar 28
Waning Crescent
Mar 30
New
Apr 7
First Quarter
Apr 15
Full
Apr 22
Last Quarter

Hourly Weather History & Observations

Time (EDT) Temp. Dew Point Humidity Pressure Visibility Wind Dir Wind Speed Gust Speed Precip Events Conditions
12:03 AM 66.2 °F 64.4 °F 94% 30.24 in 9.0 mi SSE 6.9 mph - N/A   Clear
12:13 AM 68.0 °F 64.4 °F 88% 30.23 in 10.0 mi SSE 8.1 mph - N/A   Clear
12:58 AM 68.4 °F 62.8 °F 82% 30.22 in 10.0 mi SE 13.8 mph - N/A   Clear
1:58 AM 68.4 °F 63.1 °F 83% 30.22 in 10.0 mi SSE 11.5 mph - N/A   Scattered Clouds
2:58 AM 68.5 °F 63.9 °F 85% 30.22 in 10.0 mi SSE 10.4 mph - N/A   Scattered Clouds
3:58 AM 68.4 °F 64.2 °F 87% 30.18 in 10.0 mi SSE 12.7 mph - N/A   Partly Cloudy
4:58 AM 68.9 °F 64.0 °F 84% 30.17 in 10.0 mi SSE 13.8 mph - N/A   Clear
5:58 AM 68.7 °F 64.8 °F 87% 30.19 in 10.0 mi SE 11.5 mph - N/A   Clear
6:58 AM 68.4 °F 65.3 °F 90% 30.17 in 10.0 mi SE 12.7 mph - N/A   Clear
7:58 AM 69.4 °F 64.6 °F 84% 30.17 in 10.0 mi SSE 17.3 mph - N/A   Clear
8:58 AM 71.1 °F 64.8 °F 80% 30.19 in 10.0 mi SSE 17.3 mph - N/A   Clear
9:58 AM 73.6 °F 65.7 °F 76% 30.19 in 10.0 mi SSE 13.8 mph - N/A   Clear
10:58 AM 75.0 °F 65.8 °F 73% 30.18 in 10.0 mi SSE 15.0 mph - N/A   Clear
11:58 AM 75.9 °F 66.0 °F 71% 30.19 in 10.0 mi SSE 16.1 mph - N/A   Clear
12:58 PM 76.3 °F 66.2 °F 71% 30.17 in 10.0 mi SSE 15.0 mph - N/A   Clear
1:58 PM 77.2 °F 66.4 °F 69% 30.16 in 10.0 mi SSE 15.0 mph - N/A   Clear
2:58 PM 76.3 °F 66.9 °F 73% 30.12 in 10.0 mi SSE 17.3 mph - N/A   Clear
3:58 PM 75.9 °F 67.5 °F 75% 30.09 in 10.0 mi SSE 16.1 mph - N/A   Clear
4:58 PM 75.2 °F 67.8 °F 78% 30.09 in 10.0 mi SSE 16.1 mph - N/A   Clear
5:58 PM 73.0 °F 67.6 °F 83% 30.08 in 10.0 mi SSE 13.8 mph - N/A   Clear
6:58 PM 71.4 °F 68.2 °F 89% 30.09 in 10.0 mi SSE 12.7 mph - 0.00 in   Light Drizzle
7:24 PM 71.6 °F 68.0 °F 88% 30.08 in 10.0 mi SSE 13.8 mph - N/A   Clear
7:58 PM 71.1 °F 67.5 °F 88% 30.09 in 10.0 mi SSE 16.1 mph - 0.00 in   Clear
8:58 PM 71.6 °F 66.9 °F 85% 30.11 in 10.0 mi South 11.5 mph - N/A   Clear
9:58 PM 71.4 °F 67.8 °F 88% 30.11 in 10.0 mi SSE 10.4 mph - N/A   Clear
10:38 PM 71.6 °F 68.0 °F 88% 30.09 in 9.0 mi SSE 9.2 mph - N/A   Clear
10:48 PM 71.6 °F 68.0 °F 88% 30.08 in 9.0 mi SE 9.2 mph - N/A   Clear
10:53 PM 69.8 °F 68.0 °F 94% 30.09 in 9.0 mi South 10.4 mph - N/A   Clear
10:58 PM 70.5 °F 68.0 °F 92% 30.11 in 9.0 mi SSE 9.2 mph - N/A   Clear
11:58 PM 71.2 °F 67.8 °F 89% 30.09 in 10.0 mi South 12.7 mph - N/A   Clear